This is the latest recevied weather packets stored in our database for station/object F6BIJ-13. If no packets are shown the sender has not sent any weather packets the latest 10 day(s).
| Time | Temp. | Humidity | Pressure | Rain* | Wind** | Luminosity | Snow |
|---|---|---|---|---|---|---|---|
| 1777948597 | 11.67° C | 98% | 1012.5 hPa | 2.79 mm | - | - | - |
| 1777948237 | 11.67° C | 98% | 1012.7 hPa | 2.79 mm | - | - | - |
| 1777947876 | 11.11° C | 97% | 1012.6 hPa | 2.54 mm | - | - | - |
| 1777947518 | 11.67° C | 97% | 1012.6 hPa | 2.54 mm | - | - | - |
| 1777947157 | 11.67° C | 98% | 1012.5 hPa | 2.79 mm | - | - | - |
| 1777946797 | 11.67° C | 98% | 1012.5 hPa | 2.29 mm | - | - | - |
| 1777946437 | 11.11° C | 98% | 1012.5 hPa | 2.03 mm | - | - | - |
| 1777946077 | 11.11° C | 97% | 1012.6 hPa | 2.29 mm | - | - | - |
| 1777945716 | 11.67° C | 98% | 1012.6 hPa | 2.54 mm | - | - | - |
| 1777945357 | 11.11° C | 97% | 1012.6 hPa | 2.54 mm | - | - | - |
| 1777944997 | 11.67° C | 97% | 1012.5 hPa | 2.54 mm | - | - | - |
| 1777944637 | 10.56° C | 98% | 1012.4 hPa | 2.29 mm | - | - | - |
| 1777944277 | 11.67° C | 98% | 1012.5 hPa | 2.29 mm | - | - | - |
| 1777943918 | 11.67° C | 97% | 1012.5 hPa | 1.78 mm | - | - | - |
| 1777943197 | 11.11° C | 98% | 1012.7 hPa | 1.02 mm | - | - | - |
| 1777942836 | 11.11° C | 97% | 1012.6 hPa | 1.02 mm | - | - | - |
| 1777942476 | 11.67° C | 97% | 1012.8 hPa | 1.27 mm | - | - | - |
| 1777942117 | 11.11° C | 97% | 1012.8 hPa | 1.78 mm | - | - | - |
| 1777941756 | 11.67° C | 98% | 1013 hPa | 2.29 mm | - | - | - |
| 1777941397 | 11.67° C | 98% | 1013.1 hPa | 3.3 mm | - | - | - |
| 1777941037 | 11.11° C | 98% | 1013.2 hPa | 3.3 mm | - | - | - |
| 1777940677 | 11.67° C | 97% | 1013.2 hPa | 3.3 mm | - | - | - |
| 1777940317 | 11.67° C | 98% | 1013.3 hPa | 3.3 mm | - | - | - |
| 1777939957 | 11.67° C | 97% | 1013.5 hPa | 3.3 mm | - | - | - |
| 1777939597 | 11.67° C | 97% | 1013.5 hPa | 3.3 mm | - | - | - |
* Rain latest 24 hours (hover to see other rain measurements)
** Current wind speed in m/s (hover to see current wind gust speed)